Location: Al Mulaqqa?ah
(24.1833°N, 32.8833°E)
Time: 02:17:04
(UTC+00:00)

Cosmos 1975 Rocket - Pass Details

Date: 26 September 2021
Orbit: 604 x 633 km, 82.5° (Epoch: 15 October)

Event Time Altitude Azimuth Distance (km) Brightness Sun altitude
Rises 16:43:37 0° 10° (N) 2,909 6.5 -15.2°
Reaches altitude 10° 16:46:07 10° 22° (NNE) 2,004 5.5 -15.8°
Enters shadow 16:49:29 27° 71° (ENE) 1,206 4.0 -16.5°
